Showing default

DODGE 1, 2867

Orbit data source: Space-Track

DODGE 1, 2867 is a payload satellite owned by USN NAVAIR (US) in GEO that was launched on Sat, 01 Jul 1967 UTC via a TITAN IIIC launch vehicle from the Air Force Eastern Test Range (AFETR). Payloads include a variety of satellites, spacecraft, and rockets equipped with specific instruments for various scientific and technological missions. These include communications satellites like Starlink; space stations such as the ISS; scientific satellites like the Hubble; Earth observation satellites from companies like Planet Labs, Umbra, and HawkEye 360; GPS; miniature CubeSats for education and research; and military/defense satellites.

Loading next visibility...
DODGE 1 details
Identifier
2867, 1967-066F
Orbit
GEO
Last TLE update2 days ago
Origin
Flag of USUSN NAVAIR (US)
ManufacturerAPL
MissionDefense Technology
Bus & MotorDODGE, Unknown motor
Mass195 kg wet, 195 kg dry
Launch date (UTC)
1967-07-01 (58 years ago)
Launch vehicle
TITAN IIIC
Launch site
Air Force Eastern Test Range (AFETR)
Object type
Payload
Rocket body
Debris
Shape & HBRStep Cyl + 2 Rod, 46 m
Radar Cross Section2.570 m², Large (>1 m²)

Expand to show TLE details & history

TLE from 2 days ago
0 DODGE 1
1 02867U 67066F   25014.42840750 -.00000050  00000-0  00000-0 0  9996
2 02867   1.3482 122.1170 0054942 159.7559 162.8282  1.09167136127713
Epoch: 2025-01-14T10:16Z
Definitive object data (Epoch: 2025-01-14T10:16:54.408Z)
Latitude-0.80114°
Longitude176.56001°
Altitude33,673.491 km
Speed3.146 km/s
True Right ascension05h 39m 41s
True Declination0° 48' 01"
Sunlit
Object was in daylight at TLE epoch
Visualization TLE readout
Latitude-0.39999°
Longitude49.92629°
Altitude33,285.522 km
Speed3.177 km/s
Apparent Right ascension20h 57m 25s
Apparent Declination-6° 58' 58"
Sunlit
Object is in daylight
Visualization observer readout
Local Sidereal Time23:12:22
Azimuth221.51° SW
Elevation33.716°
Doppler factor1
Orbital elements
Apogee altitude33,683.846 km
Perigee altitude33,246.034 km
Semi-major axis39,843.077 km
Eccentricity0.0054942
Inclination1.3482°
RAAN122.117°
Arg. of periapsis159.7559°
True anomaly163.01287°
Mean anomaly162.8282°
Eccentric anomaly162.92065°
Mean motion0.27291 °/min
BSTARUnknown
Orbital period1319.13 mins
Loading historical data...
2867 neighbors
Authenticating...
Loading maneuver chart data...
Loading historical data...
Loading historical data...
Loading historical data...
Loading historical data...
Loading historical data...
Loading historical data...
Loading historical data...

DODGE 1 Visibility forecast

Observer location: undefined°, undefined

Span
Click to sort rows by Start time (UTC) header in descending order
Start Az.
Max El. time (UTC)
Max El. Az.
Max El.
End time (UTC)
End Az.
1440 mins2025-01-15 22:30:21.118Z221.497° SW2025-01-16 16:08:21.118Z191.092° SSW34.815°2025-01-16 22:30:21.118Z176.281° S
|